Location: Asheville, NC
(35.6000°N, 82.5500°W)
Time: 06:22:36
(UTC-05:00)

STRAND 1 - Pass Details

Date: 06 January 2018
Orbit: 768 x 782 km, 98.5° (Epoch: 19 January)

Event Time Altitude Azimuth Distance (km) Brightness Sun altitude
Rises 06:42:57 0° 149° (SSE) 3,226 ? -11.5°
Reaches altitude 10° 06:45:20 10° 142° (SE) 2,302 ? -11.1°
Maximum altitude 06:50:07 44° 72° (ENE) 1,057 ? -10.2°
Drops below altitude 10° 06:54:55 10° 1° (N) 2,311 ? -9.2°
Sets 06:57:19 0° 355° (N) 3,241 ? -8.8°
